Weather History for LTCE - October, 2013

Change the Weather History Date:

Monday, October 21, 2013

  Actual Average Record
Temperature  
Mean Temperature 37 °F -  
Max Temperature 53 °F 48 °F 68 °F (2010)
Min Temperature 21 °F 30 °F 14 °F (2005)
Degree Days  
Heating Degree Days 28    
Moisture  
Dew Point 25 °F    
Average Humidity 65    
Maximum Humidity 100    
Minimum Humidity 23    
Precipitation  
Precipitation 0.00 in 0.05 in - ()
Sea Level Pressure  
Sea Level Pressure 30.37 in    
Wind  
Wind Speed 3 mph ()    
Max Wind Speed 9 mph    
Max Gust Speed -    
Visibility 9.7 miles    
Events      
Averages and records for this station are not official NWS values.
T = Trace of Precipitation, MM = Missing Value Source: Averaged Metar Reports

Daily Weather History Graph

Daily Weather History Graph

Search for Another Location

Airport or City:

Trip Planner

Search our weather history database for the weather conditions in past years. The results will help you decide how hot, cold, wet, or windy it might be!

Date:

Astronomy

Oct. 21, 2013 Rise Set
Actual Time 6:32 AM EEST 5:27 PM EEST
Civil Twilight 6:04 AM EEST 5:54 PM EEST
Nautical Twilight 5:32 AM EEST 6:26 PM EEST
Astronomical Twilight 5:01 AM EEST 6:57 PM EEST
Moon 7:03 PM EEST (10/21) 8:46 AM EEST (10/21)
Length of Visible Light 11h 50m
Length of Day
10h 55m
Waning Gibbous, 94% of the Moon is Illuminated
Oct 21
Waning Gibbous
Oct 27
Last Quarter
Nov 3
New
Nov 10
First Quarter
Nov 17
Full

Hourly Weather History & Observations

Time (EEST) Temp. Windchill Dew Point Humidity Pressure Visibility Wind Dir Wind Speed Gust Speed Precip Events Conditions
12:20 AM 32.0 °F 26.4 °F 28.4 °F 87% 30.39 in 6.2 mi ENE 5.8 mph - N/A   Partly Cloudy
12:50 AM 30.2 °F 24.3 °F 26.6 °F 86% 30.39 in 6.2 mi NNE 5.8 mph - N/A   Partly Cloudy
1:20 AM 28.4 °F 23.3 °F 26.6 °F 93% 30.39 in - SE 4.6 mph - N/A   Clear
1:50 AM 26.6 °F - 24.8 °F 93% 30.39 in - Variable 2.3 mph - N/A   Clear
2:20 AM 26.6 °F - 26.6 °F 100% 30.39 in - SSE 2.3 mph - N/A   Clear
2:50 AM 26.6 °F - 24.8 °F 93% 30.39 in - Variable 2.3 mph - N/A   Clear
3:20 AM 26.6 °F - 24.8 °F 93% 30.39 in - Variable 1.2 mph - N/A   Clear
3:50 AM 26.6 °F - 24.8 °F 93% 30.39 in - Variable 1.2 mph - N/A   Clear
4:20 AM 24.8 °F 19.1 °F 23.0 °F 93% 30.39 in - WSW 4.6 mph - N/A   Clear
4:50 AM 24.8 °F - 23.0 °F 93% 30.39 in - Variable 2.3 mph - N/A   Clear
5:20 AM 21.2 °F - 21.2 °F 100% 30.39 in - South 1.2 mph - N/A   Clear
5:50 AM 24.8 °F 20.5 °F 23.0 °F 93% 30.39 in - WSW 3.5 mph - N/A   Clear
6:20 AM 23.0 °F - 21.2 °F 93% 30.39 in - Variable 2.3 mph - N/A   Clear
6:50 AM 23.0 °F 15.8 °F 23.0 °F 100% 30.39 in - SW 5.8 mph - N/A   Clear
7:20 AM 26.6 °F - 24.8 °F 93% 30.39 in - Calm Calm - N/A   Clear
7:50 AM 28.4 °F - 26.6 °F 93% 30.39 in - Variable 2.3 mph - N/A   Clear
8:20 AM 30.2 °F - 28.4 °F 93% 30.39 in - Variable 2.3 mph - N/A   Clear
8:50 AM 33.8 °F - 30.2 °F 87% 30.39 in - Variable 1.2 mph - N/A   Clear
9:00 AM 34 °F - 29 °F 74%  in 12 mi West 1.2 mph - -  
9:20 AM 37.4 °F 33.8 °F 30.2 °F 75% 30.39 in - Variable 4.6 mph - N/A   Clear
9:50 AM 41.0 °F 37.1 °F 28.4 °F 61% 30.39 in - Variable 5.8 mph - N/A   Clear
10:20 AM 41.0 °F 35.8 °F 28.4 °F 61% 30.39 in - ENE 8.1 mph - N/A   Clear
10:50 AM 42.8 °F 37.5 °F 24.8 °F 49% 30.39 in - East 9.2 mph - N/A   Clear
11:20 AM 44.6 °F 40.2 °F 26.6 °F 49% 30.39 in - ENE 8.1 mph - N/A   Clear
11:50 AM 46.4 °F 42.9 °F 23.0 °F 40% 30.39 in - ENE 6.9 mph - N/A   Clear
12:20 PM 48.2 °F - 24.8 °F 40% 30.36 in - ENE 6.9 mph - N/A   Clear
12:50 PM 48.2 °F - 26.6 °F 43% 30.36 in - Variable 3.5 mph - N/A   Clear
1:20 PM 50.0 °F - 24.8 °F 37% 30.33 in - East 6.9 mph - N/A   Clear
1:50 PM 51.8 °F - 24.8 °F 35% 30.33 in - NE 4.6 mph - N/A   Clear
2:20 PM 51.8 °F - 24.8 °F 35% 30.33 in - NNE 4.6 mph - N/A   Clear
2:50 PM 51.8 °F - 26.6 °F 38% 30.33 in - NE 9.2 mph - N/A   Clear
3:00 PM 52 °F - 26 °F 23%  in 12 mi NE 9.2 mph - -  
3:20 PM 51.8 °F - 28.4 °F 41% 30.33 in - NNE 4.6 mph - N/A   Clear
3:50 PM 53.6 °F - 28.4 °F 38% 30.33 in - Variable 2.3 mph - N/A   Clear
4:20 PM 51.8 °F - 28.4 °F 41% 30.36 in - ENE 6.9 mph - N/A   Clear
4:50 PM 51.8 °F - 28.4 °F 41% 30.33 in - Calm Calm - N/A   Clear
5:20 PM 51.8 °F - 28.4 °F 41% 30.33 in - Calm Calm - N/A   Clear
5:50 PM 50.0 °F - 28.4 °F 43% 30.33 in - Calm Calm - N/A   Clear
6:20 PM 48.2 °F - 30.2 °F 50% 30.33 in - Calm Calm - N/A   Clear
6:50 PM 48.2 °F - 30.2 °F 50% 30.33 in - Calm Calm - N/A   Clear
7:20 PM 41.0 °F - 30.2 °F 65% 30.33 in - Calm Calm - N/A   Clear
7:50 PM 35.6 °F - 28.4 °F 75% 30.33 in - Variable 2.3 mph - N/A   Clear
8:20 PM 33.8 °F - 23.0 °F 65% 30.39 in - Variable 2.3 mph - N/A   Clear
8:50 PM 33.8 °F - 19.4 °F 56% 30.39 in - Variable 2.3 mph - N/A   Clear
9:00 PM 33 °F - 19 °F 44%  in 12 mi North 2.3 mph - -  
9:20 PM 32.0 °F - 19.4 °F 60% 30.36 in - Variable 2.3 mph - N/A   Clear
9:50 PM 32.0 °F 27.5 °F 17.6 °F 55% 30.36 in - NNE 4.6 mph - N/A   Clear
10:20 PM 32.0 °F 27.5 °F 17.6 °F 55% 30.36 in - NNE 4.6 mph - N/A   Clear
10:50 PM 30.2 °F 24.3 °F 17.6 °F 60% 30.36 in - NE 5.8 mph - N/A   Clear
11:20 PM 30.2 °F - 15.8 °F 55% 30.36 in - Variable 2.3 mph - N/A   Clear
11:50 PM 24.8 °F - 12.2 °F 59% 30.33 in - Calm Calm - N/A   Clear